| time (UTC) | temp F | wind direction | speed MPH | gust MPH | rain 1hr in | rain 24hr in | rain mn in | humidity % | barometer mb |
| 20260509034003 | 48 | 0 | 0.0 | 0.0 | 0.00 | 0.07 | 0.07 | 95 | 1010.0 |
| 20260509033003 | 48 | 0 | 0.0 | 0.0 | 0.00 | 0.07 | 0.07 | 95 | 1009.9 |
| 20260509032003 | 48 | 0 | 0.0 | 0.0 | 0.00 | 0.08 | 0.07 | 95 | 1010.0 |
| 20260509031003 | 48 | 0 | 0.0 | 0.0 | 0.00 | 0.09 | 0.07 | 95 | 1010.2 |
| 20260509030003 | 48 | 0 | 0.0 | 0.0 | 0.00 | 0.09 | 0.07 | 95 | 1010.4 |
| 20260509025213 | 48 | 0 | 0.0 | 0.0 | 0.00 | 0.09 | 0.07 | 95 | 1010.5 |
| 20260509024003 | 48 | 0 | 0.0 | 0.0 | 0.00 | 0.09 | 0.07 | 94 | 1010.3 |
| 20260509023003 | 48 | 0 | 0.0 | 0.0 | 0.00 | 0.09 | 0.07 | 94 | 1010.2 |
| 20260509022003 | 48 | 0 | 0.0 | 0.0 | 0.00 | 0.09 | 0.07 | 93 | 1010.1 |
| 20260509021003 | 49 | 0 | 0.0 | 0.0 | 0.00 | 0.09 | 0.07 | 93 | 1010.2 |
| 20260509020003 | 49 | 0 | 0.0 | 0.0 | 0.00 | 0.09 | 0.07 | 93 | 1010.2 |
| 20260509015003 | 50 | 0 | 0.0 | 0.0 | 0.00 | 0.09 | 0.07 | 93 | 1010.2 |
| 20260509014214 | 50 | 0 | 0.0 | 0.0 | 0.00 | 0.09 | 0.07 | 93 | 1010.1 |
| 20260509013003 | 51 | 0 | 0.0 | 0.0 | 0.00 | 0.09 | 0.07 | 94 | 1009.9 |
| 20260509012003 | 51 | 0 | 0.0 | 0.0 | 0.00 | 0.09 | 0.07 | 94 | 1009.9 |
| 20260509011003 | 51 | 0 | 0.0 | 0.0 | 0.00 | 0.09 | 0.07 | 94 | 1009.9 |
| 20260509010003 | 51 | 0 | 0.0 | 0.0 | 0.00 | 0.09 | 0.07 | 93 | 1009.9 |
| 20260509005003 | 51 | 0 | 0.0 | 0.0 | 0.00 | 0.09 | 0.07 | 93 | 1009.6 |
| 20260509004003 | 51 | 0 | 0.0 | 0.0 | 0.00 | 0.09 | 0.07 | 93 | 1009.5 |
| 20260509003003 | 52 | 0 | 0.0 | 0.0 | 0.00 | 0.09 | 0.07 | 93 | 1009.5 |
| 20260509002003 | 52 | 0 | 0.0 | 0.0 | 0.01 | 0.09 | 0.07 | 92 | 1009.4 |
| 20260509001003 | 52 | 0 | 0.0 | 0.0 | 0.01 | 0.09 | 0.07 | 92 | 1009.4 |
| 20260509000003 | 52 | 0 | 0.0 | 0.0 | 0.02 | 0.09 | 0.07 | 92 | 1009.2 |
| 20260508235214 | 52 | 0 | 0.0 | 0.0 | 0.02 | 0.09 | 0.07 | 92 | 1009.1 |
| 20260508234213 | 52 | 0 | 0.0 | 0.0 | 0.02 | 0.09 | 0.07 | 91 | 1009.1 |
| 20260508233213 | 53 | 0 | 0.0 | 0.0 | 0.02 | 0.09 | 0.07 | 90 | 1009.2 |
| 20260508232213 | 54 | 0 | 0.0 | 0.0 | 0.01 | 0.08 | 0.06 | 88 | 1009.1 |
| 20260508231213 | 55 | 0 | 0.0 | 0.0 | 0.01 | 0.08 | 0.06 | 86 | 1009.1 |
| 20260508230213 | 56 | 0 | 0.0 | 0.0 | 0.00 | 0.07 | 0.05 | 82 | 1009.2 |
| 20260508225003 | 57 | 0 | 0.0 | 0.0 | 0.00 | 0.07 | 0.05 | 76 | 1009.0 |
| 20260508224213 | 57 | 0 | 0.0 | 0.0 | 0.00 | 0.07 | 0.05 | 74 | 1009.0 |
| 20260508223003 | 58 | 0 | 0.0 | 0.0 | 0.00 | 0.07 | 0.05 | 72 | 1008.7 |
| 20260508222003 | 58 | 0 | 0.0 | 0.0 | 0.00 | 0.07 | 0.05 | 71 | 1008.6 |
| 20260508221003 | 58 | 0 | 0.0 | 0.0 | 0.00 | 0.07 | 0.05 | 69 | 1008.6 |
| 20260508220003 | 59 | 0 | 0.0 | 0.0 | 0.00 | 0.07 | 0.05 | 70 | 1008.6 |
| 20260508215003 | 59 | 347 | 0.0 | 3.0 | 0.00 | 0.07 | 0.05 | 69 | 1008.7 |
| 20260508214003 | 58 | 355 | 1.0 | 3.0 | 0.00 | 0.07 | 0.05 | 68 | 1008.7 |
| 20260508213003 | 58 | 350 | 1.0 | 4.0 | 0.00 | 0.07 | 0.05 | 68 | 1008.9 |
| 20260508212003 | 59 | 23 | 0.0 | 3.0 | 0.00 | 0.07 | 0.05 | 67 | 1008.9 |
| 20260508211003 | 59 | 23 | 1.0 | 2.0 | 0.00 | 0.07 | 0.05 | 69 | 1008.9 |
| 20260508210003 | 59 | 21 | 2.0 | 5.0 | 0.00 | 0.07 | 0.05 | 64 | 1008.9 |
| 20260508205212 | 59 | 20 | 1.0 | 6.0 | 0.00 | 0.07 | 0.05 | 64 | 1009.0 |
| 20260508204003 | 59 | 33 | 1.0 | 4.0 | 0.00 | 0.07 | 0.05 | 61 | 1009.1 |
| 20260508203212 | 59 | 341 | 2.0 | 4.0 | 0.00 | 0.07 | 0.05 | 60 | 1009.0 |
| 20260508202212 | 60 | 353 | 2.0 | 8.0 | 0.00 | 0.07 | 0.05 | 58 | 1009.0 |
| 20260508201003 | 61 | 25 | 1.0 | 5.0 | 0.00 | 0.07 | 0.05 | 59 | 1009.1 |
| 20260508200003 | 59 | 15 | 2.0 | 9.0 | 0.01 | 0.07 | 0.05 | 60 | 1009.0 |
| 20260508195003 | 58 | 357 | 1.0 | 7.0 | 0.01 | 0.07 | 0.05 | 63 | 1009.2 |
| 20260508194003 | 57 | 33 | 2.0 | 12.0 | 0.01 | 0.07 | 0.05 | 66 | 1009.3 |
| 20260508193003 | 56 | 14 | 2.0 | 8.0 | 0.01 | 0.07 | 0.05 | 69 | 1009.5 |
| 20260508192003 | 55 | 55 | 1.0 | 9.0 | 0.01 | 0.07 | 0.05 | 73 | 1009.5 |
| 20260508191003 | 56 | 95 | 1.0 | 6.0 | 0.01 | 0.07 | 0.05 | 72 | 1009.5 |
| 20260508190003 | 57 | 0 | 0.0 | 0.0 | 0.00 | 0.06 | 0.04 | 72 | 1009.6 |
| 20260508185003 | 58 | 356 | 0.0 | 5.0 | 0.00 | 0.06 | 0.04 | 66 | 1009.5 |
| 20260508184003 | 58 | 9 | 2.0 | 4.0 | 0.00 | 0.06 | 0.04 | 59 | 1009.5 |
| 20260508183003 | 59 | 6 | 1.0 | 6.0 | 0.00 | 0.06 | 0.04 | 59 | 1009.4 |
| 20260508182003 | 59 | 342 | 2.0 | 4.0 | 0.00 | 0.06 | 0.04 | 61 | 1009.5 |
| 20260508181003 | 58 | 6 | 2.0 | 7.0 | 0.00 | 0.06 | 0.04 | 60 | 1009.6 |
| 20260508180003 | 57 | 22 | 1.0 | 4.0 | 0.00 | 0.06 | 0.04 | 61 | 1009.8 |
| 20260508175003 | 58 | 347 | 1.0 | 5.0 | 0.00 | 0.06 | 0.04 | 63 | 1010.1 |
| 20260508174003 | 58 | 5 | 2.0 | 6.0 | 0.00 | 0.06 | 0.04 | 60 | 1010.0 |
| 20260508173003 | 58 | 9 | 2.0 | 5.0 | 0.00 | 0.06 | 0.04 | 61 | 1009.9 |
| 20260508172003 | 58 | 338 | 2.0 | 5.0 | 0.00 | 0.06 | 0.04 | 61 | 1010.0 |
| 20260508171003 | 58 | 343 | 3.0 | 9.0 | 0.00 | 0.06 | 0.04 | 61 | 1010.0 |
| 20260508170003 | 56 | 4 | 3.0 | 9.0 | 0.00 | 0.06 | 0.04 | 63 | 1010.2 |
| 20260508165004 | 55 | 352 | 2.0 | 8.0 | 0.00 | 0.06 | 0.04 | 67 | 1010.4 |
| 20260508164003 | 54 | 26 | 2.0 | 9.0 | 0.00 | 0.06 | 0.04 | 67 | 1010.3 |
| 20260508163003 | 54 | 18 | 1.0 | 4.0 | 0.00 | 0.06 | 0.04 | 69 | 1010.4 |
| 20260508162003 | 54 | 2 | 2.0 | 6.0 | 0.00 | 0.06 | 0.04 | 67 | 1010.3 |
| 20260508161003 | 55 | 12 | 3.0 | 10.0 | 0.00 | 0.06 | 0.04 | 67 | 1010.4 |
| 20260508160004 | 55 | 15 | 2.0 | 8.0 | 0.00 | 0.06 | 0.04 | 67 | 1010.3 |
| 20260508155003 | 55 | 344 | 2.0 | 5.0 | 0.00 | 0.06 | 0.04 | 70 | 1010.5 |
| 20260508154003 | 54 | 45 | 2.0 | 8.0 | 0.00 | 0.06 | 0.04 | 70 | 1010.4 |
| 20260508153003 | 54 | 348 | 1.0 | 3.0 | 0.00 | 0.06 | 0.04 | 73 | 1010.4 |
| 20260508152003 | 53 | 18 | 2.0 | 9.0 | 0.00 | 0.06 | 0.04 | 72 | 1010.4 |
| 20260508151003 | 52 | 60 | 1.0 | 4.0 | 0.00 | 0.06 | 0.04 | 81 | 1010.7 |
| 20260508150004 | 50 | 1 | 2.0 | 7.0 | 0.00 | 0.06 | 0.04 | 83 | 1010.7 |
| 20260508145003 | 49 | 5 | 1.0 | 5.0 | 0.00 | 0.06 | 0.04 | 86 | 1010.7 |
| 20260508144003 | 48 | 4 | 2.0 | 6.0 | 0.00 | 0.06 | 0.04 | 87 | 1010.9 |
| 20260508143003 | 48 | 8 | 1.0 | 9.0 | 0.00 | 0.06 | 0.04 | 90 | 1011.0 |
| 20260508142003 | 47 | 0 | 0.0 | 0.0 | 0.00 | 0.06 | 0.04 | 93 | 1010.9 |
| 20260508141003 | 46 | 0 | 0.0 | 0.0 | 0.00 | 0.06 | 0.04 | 94 | 1010.8 |
| 20260508140004 | 46 | 0 | 0.0 | 0.0 | 0.00 | 0.06 | 0.04 | 94 | 1011.0 |
| 20260508135003 | 46 | 0 | 0.0 | 0.0 | 0.00 | 0.06 | 0.04 | 94 | 1011.3 |
| 20260508134003 | 46 | 0 | 0.0 | 0.0 | 0.00 | 0.06 | 0.04 | 94 | 1011.3 |
| 20260508133003 | 46 | 0 | 0.0 | 0.0 | 0.00 | 0.06 | 0.04 | 94 | 1011.7 |
| 20260508132214 | 46 | 0 | 0.0 | 0.0 | 0.00 | 0.06 | 0.04 | 94 | 1011.4 |
| 20260508131003 | 46 | 0 | 0.0 | 0.0 | 0.00 | 0.06 | 0.04 | 95 | 1011.3 |
| 20260508130003 | 45 | 0 | 0.0 | 0.0 | 0.00 | 0.06 | 0.04 | 95 | 1011.2 |
| 20260508125003 | 45 | 10 | 0.0 | 1.0 | 0.00 | 0.06 | 0.04 | 96 | 1011.2 |
| 20260508124003 | 45 | 107 | 0.0 | 1.0 | 0.00 | 0.06 | 0.04 | 97 | 1011.2 |
| 20260508123003 | 44 | 107 | 0.0 | 2.0 | 0.00 | 0.06 | 0.04 | 97 | 1011.1 |
| 20260508122003 | 43 | 111 | 0.0 | 2.0 | 0.00 | 0.06 | 0.04 | 97 | 1011.0 |
| 20260508121213 | 42 | 0 | 0.0 | 0.0 | 0.00 | 0.06 | 0.04 | 97 | 1010.9 |
| 20260508120004 | 41 | 121 | 0.0 | 1.0 | 0.01 | 0.06 | 0.04 | 97 | 1010.9 |
| 20260508115003 | 40 | 121 | 0.0 | 1.0 | 0.01 | 0.06 | 0.04 | 97 | 1010.9 |
| 20260508114003 | 40 | 121 | 0.0 | 1.0 | 0.01 | 0.06 | 0.04 | 96 | 1011.0 |
| 20260508113003 | 39 | 121 | 0.0 | 1.0 | 0.01 | 0.06 | 0.04 | 96 | 1011.0 |
| 20260508112003 | 38 | 0 | 0.0 | 0.0 | 0.01 | 0.06 | 0.04 | 96 | 1011.1 |
| 20260508111003 | 38 | 0 | 0.0 | 0.0 | 0.01 | 0.06 | 0.04 | 96 | 1011.1 |
| 20260508110213 | 37 | 0 | 0.0 | 0.0 | 0.00 | 0.05 | 0.03 | 95 | 1011.0 |
| 20260508105213 | 37 | 0 | 0.0 | 0.0 | 0.00 | 0.05 | 0.03 | 95 | 1010.9 |
| 20260508104003 | 36 | 0 | 0.0 | 0.0 | 0.00 | 0.05 | 0.03 | 95 | 1010.7 |
| 20260508103004 | 36 | 0 | 0.0 | 0.0 | 0.00 | 0.05 | 0.03 | 95 | 1010.6 |
| 20260508102003 | 36 | 0 | 0.0 | 0.0 | 0.00 | 0.05 | 0.03 | 95 | 1010.7 |
| 20260508101003 | 36 | 0 | 0.0 | 0.0 | 0.00 | 0.05 | 0.03 | 95 | 1010.6 |
| 20260508100003 | 36 | 0 | 0.0 | 0.0 | 0.00 | 0.05 | 0.03 | 95 | 1010.5 |
| 20260508095003 | 36 | 0 | 0.0 | 0.0 | 0.00 | 0.05 | 0.03 | 94 | 1010.6 |
| 20260508094003 | 36 | 0 | 0.0 | 0.0 | 0.00 | 0.05 | 0.03 | 94 | 1010.7 |
| 20260508093003 | 37 | 0 | 0.0 | 0.0 | 0.00 | 0.05 | 0.03 | 94 | 1010.5 |
| 20260508092003 | 37 | 0 | 0.0 | 0.0 | 0.00 | 0.05 | 0.03 | 94 | 1010.3 |
| 20260508091003 | 37 | 0 | 0.0 | 0.0 | 0.00 | 0.05 | 0.03 | 94 | 1010.5 |
| 20260508090003 | 38 | 0 | 0.0 | 0.0 | 0.00 | 0.05 | 0.03 | 94 | 1010.4 |
| 20260508085003 | 38 | 0 | 0.0 | 0.0 | 0.00 | 0.05 | 0.03 | 94 | 1010.4 |
| 20260508084003 | 38 | 0 | 0.0 | 0.0 | 0.00 | 0.05 | 0.03 | 94 | 1010.3 |
| 20260508083003 | 38 | 0 | 0.0 | 0.0 | 0.00 | 0.05 | 0.03 | 94 | 1010.2 |
| 20260508082003 | 38 | 0 | 0.0 | 0.0 | 0.00 | 0.05 | 0.03 | 94 | 1010.2 |
| 20260508081003 | 38 | 0 | 0.0 | 0.0 | 0.00 | 0.05 | 0.03 | 94 | 1010.0 |
| 20260508080003 | 38 | 121 | 0.0 | 1.0 | 0.00 | 0.05 | 0.03 | 94 | 1010.2 |
| 20260508075003 | 38 | 121 | 0.0 | 1.0 | 0.00 | 0.05 | 0.03 | 94 | 1010.2 |
| 20260508074003 | 39 | 0 | 0.0 | 0.0 | 0.00 | 0.05 | 0.03 | 94 | 1010.3 |
| 20260508073003 | 39 | 0 | 0.0 | 0.0 | 0.00 | 0.05 | 0.03 | 93 | 1010.2 |
| 20260508072003 | 39 | 0 | 0.0 | 0.0 | 0.00 | 0.05 | 0.03 | 93 | 1010.1 |
| 20260508071003 | 40 | 0 | 0.0 | 0.0 | 0.00 | 0.05 | 0.03 | 93 | 1010.1 |
| 20260508070213 | 40 | 0 | 0.0 | 0.0 | 0.00 | 0.05 | 0.03 | 93 | 1010.1 |
| 20260508065003 | 41 | 0 | 0.0 | 0.0 | 0.00 | 0.05 | 0.03 | 93 | 1010.0 |
| 20260508064003 | 41 | 0 | 0.0 | 0.0 | 0.00 | 0.05 | 0.03 | 93 | 1010.0 |
| 20260508063213 | 42 | 0 | 0.0 | 0.0 | 0.00 | 0.05 | 0.03 | 93 | 1010.2 |
| 20260508062003 | 42 | 0 | 0.0 | 0.0 | 0.00 | 0.05 | 0.03 | 93 | 1010.1 |
| 20260508061003 | 43 | 0 | 0.0 | 0.0 | 0.00 | 0.05 | 0.03 | 93 | 1010.0 |
| 20260508060003 | 43 | 0 | 0.0 | 0.0 | 0.00 | 0.05 | 0.03 | 93 | 1010.0 |
| 20260508055213 | 44 | 121 | 0.0 | 1.0 | 0.01 | 0.05 | 0.03 | 93 | 1010.1 |
| 20260508054003 | 44 | 121 | 0.0 | 1.0 | 0.01 | 0.05 | 0.03 | 93 | 1010.2 |
| 20260508053003 | 44 | 121 | 0.0 | 1.0 | 0.01 | 0.05 | 0.03 | 93 | 1010.3 |
| 20260508052003 | 44 | 0 | 0.0 | 0.0 | 0.01 | 0.05 | 0.03 | 93 | 1010.2 |
| 20260508051213 | 45 | 0 | 0.0 | 0.0 | 0.02 | 0.05 | 0.03 | 92 | 1010.2 |
| 20260508050003 | 45 | 121 | 1.0 | 3.0 | 0.03 | 0.05 | 0.03 | 92 | 1009.9 |
| 20260508045003 | 45 | 126 | 0.0 | 2.0 | 0.02 | 0.04 | 0.02 | 91 | 1010.3 |
| 20260508044003 | 46 | 318 | 0.0 | 3.0 | 0.02 | 0.04 | 0.02 | 91 | 1010.2 |
| 20260508043003 | 46 | 347 | 0.0 | 5.0 | 0.02 | 0.04 | 0.02 | 91 | 1010.1 |
| 20260508042003 | 46 | 350 | 2.0 | 6.0 | 0.03 | 0.04 | 0.02 | 90 | 1009.9 |
| 20260508041003 | 47 | 334 | 1.0 | 5.0 | 0.03 | 0.03 | 0.01 | 92 | 1009.8 |
| 20260508040004 | 47 | 0 | 0.0 | 0.0 | 0.02 | 0.02 | 0.00 | 91 | 1009.4 |
| 20260508035003 | 47 | 0 | 0.0 | 0.0 | 0.02 | 0.02 | 0.02 | 90 | 1009.1 |